World > North America > United States > Ohio > Kelleys Island   Village of Kelleys Island, OH

Kelleys Island, OH Hourly Weather Updates

Feedback E-mail the Weather

Quick Clicks

Kelleys Island, OH Weather Maps

°F °C°F °C
Kelleys Island Weather Map
UTC Time: 4/20/2024, 22:53
Your Time:

Kelleys Island, OH Regional Weather

Expires:202404202300;;094987
ASUS41 KCLE 202212
RWRCLE
OHIO REGIONAL WEATHER ROUNDUP
NATIONAL WEATHER SERVICE WILMINGTON, OH
600 PM EDT SAT APR 20 2024

NOTE: "FAIR" INDICATES FEW OR NO CLOUDS BELOW 12,000 FEET WITH NO
SIGNIFICANT WEATHER AND/OR OBSTRUCTIONS TO VISIBILITY.


OHZ009>014-019>023-028>033-038-089-202300-
   NORTHEAST OHIO
  
CITY           SKY/WX    TMP DP  RH WIND       PRES   REMARKS
CLE-HOPKINS    PTSUNNY   46  25  43 NW10G21   30.12R                  
CLE-LAKEFRONT  FAIR      48  28  46 W14       30.14R                  
CUY CO. ARPT   MOSUNNY   45  27  49 NW10G18   30.15R                  
LORAIN-ELYRIA  NOT AVBL                                               
ASHTABULA      PTSUNNY   44  23  43 NW10      30.12R                  
AKRON-CANTON   PTSUNNY   46  25  43 NW14G21   30.11R                  
WOOSTER        CLOUDY    48  26  42 NW16G23   30.13R                  
MANSFIELD      CLOUDY    47  26  44 W9G20     30.12R                  
YOUNGSTOWN     PTSUNNY   46  24  42 NW13G26   30.10R                  
$$
 

SKY/WX - Weather  TMP - Temperature  DP - Dew Point  RH - Humidity
WIND - Wind Direction/Speed PRES - Barometric Pressure VSB - Visibility
WCI - Wind Chill Index E13G22 Wind - East Wind 13 mph/Gusts of 22 mph

Trending Headlines

Trending Entertainment Headlines

Kelleys Island Radar Loop

Use the map search tool if you want to place a location marker on the radar map...

Kelleys Island Quick Facts

National Two Day Weather Forecast


E-mail the Kelleys Island Weather Forecast

Voice your opinion or tell us about page issues...